Regional Weather Roundup
Issued by NWS

Home | Current Version | Previous Version | Graphics & Text | Print | Product List | Glossary On
Versions: 1 2 3 4 5 6 7 8 9 10 11 12 13 14 15 16 17 18 19 20 21 22 23 24 25 26 27 28 29 30 31 32 33 34 35 36 37 38 39 40 41 42 43 44 45 46 47 48 49 50
839
ASUS45 KABQ 291501
RWRNM
NEW MEXICO REGIONAL WEATHER ROUNDUP
NATIONAL WEATHER SERVICE ALBUQUERQUE NM
900 AM MDT MON MAY 29 2017

NOTE: "FAIR" MEANS FEW OR NO CLOUDS BELOW 12,000 FEET AGL WITH NO
       SIGNIFICANT WEATHER OR OBSTRUCTIONS TO VISION.

      THIS PRODUCT IS RELEASED AS TWO VERSIONS.  ONE VERSION NEAR
      THE TOP OF THE HOUR CONTAINING PRELIMINARY DATA FROM ALBUQUERQUE
      AND OTHER STATIONS.  A FINAL VERSION WITH ADDITIONAL DATA IS
      ISSUED ABOUT 10 MINUTES AFTER THE HOUR.

NMZ501-503-504-510>518-291600-
NORTHWEST PLATEAU/NORTHCENTRAL MOUNTAINS

CITY           SKY/WX    TMP DP  RH WIND       PRES   REMARKS
FARMINGTON     FAIR      56  27  32 E6        30.20S
LOS ALAMOS     FAIR      58  34  40 S10       30.33S
SANTA FE       FAIR      63  40  42 SE14      30.28R
TAOS           FAIR      57  28  33 CALM      30.34R
ANGEL FIRE     FAIR      49  34  57 CALM      30.37F

$$
NMZ402-403-502-505>509-291600-
WESTCENTRAL MOUNTAINS/SOUTHWEST MOUNTAINS

CITY           SKY/WX    TMP DP  RH WIND       PRES   REMARKS
GALLUP         FAIR      62  32  32 NE5       30.24S
GRANTS         FAIR      62  32  32 SE8       30.28F
SILVER CITY    FAIR      69  42  38 SE22      30.21S

$$
NMZ407-409-411-412-291600-
SOUTHERN DESERTS

CITY           SKY/WX    TMP DP  RH WIND       PRES   REMARKS
DEMING         FAIR      72  44  36 E15       30.16R
LAS CRUCES     FAIR      71  46  40 SE16G22   30.18S
HOLLOMAN AFB   FAIR      71  43  36 S6        30.21R
ALAMOGORDO     FAIR      68  41  37 CALM      30.20R
T OR C         FAIR      71  40  32 S7        30.19R

$$
NMZ519>523-291600-
CENTRAL VALLEYS/CENTRAL HIGHLANDS

CITY           SKY/WX    TMP DP  RH WIND       PRES   REMARKS
ALBUQUERQUE    FAIR      67  37  33 VRB3      30.23S
MORIARTY ARPT  FAIR      64  40  41 S7        30.29S
CLINES CORNERS FAIR      59  41  51 SE16      30.33R
BELEN          FAIR      67  35  31 E3        30.23S
SOCORRO        FAIR      69  39  33 SE6       30.20F

$$
NMZ524>526-539-540-291600-
SOUTHCENTRAL MOUNTAINS

CITY           SKY/WX    TMP DP  RH WIND       PRES   REMARKS
RUIDOSO        NOT AVBL

$$
NMZ527>531-291600-
NORTHEAST HIGHLANDS/NORTHEAST PLAINS

CITY           SKY/WX    TMP DP  RH WIND       PRES   REMARKS
LAS VEGAS      CLOUDY    57  39  51 S20G25    30.33R
RATON          FAIR      58  34  40 S8        30.31S
CLAYTON        PTSUNNY   61  38  42 SW9       30.28S

$$
NMZ532>537-291600-
EASTCENTRAL PLAINS

CITY           SKY/WX    TMP DP  RH WIND       PRES   REMARKS
SANTA ROSA     FAIR      66  36  33 S12G17    30.25F
TUCUMCARI      PTSUNNY   67  39  35 W6        30.22S
CANNON AFB     FAIR      69  38  33 S8        30.25S
CLOVIS AIRPORT FAIR      68  37  32 S8        30.24S

$$
NMZ028-029-538-291600-
SOUTHEAST PLAINS

CITY           SKY/WX    TMP DP  RH WIND       PRES   REMARKS
ROSWELL        CLOUDY    67  44  43 VRB3      30.20F
ARTESIA        FAIR      70  50  49 CALM      30.20S
CARLSBAD       FAIR      72  54  53 S12G18    30.17R
HOBBS          SUNNY     68  48  49 SE9       30.22R


$$




USA.gov is the U.S. government's official web portal to all federal, state and local government web resources and services.